Вернуться в каталог

STARLINK-34297

АктивенСвязьVLEO
NORAD 64261·PAYLOAD·🇺🇸 United States

Запущен Jun 4, 2025 с Vandenberg Space Force Base

Loading…

Ближайшие Пролёты (ближайшие 24 часа)

TLE

СвежийSource: CelesTrak SupGP

Эпоха: Sep 14, 2026, 23:00 UTC

1 64261C 25120F   26257.95881944  .00044062  00000+0  13021-2 0  2570
2 64261  53.1589 311.9574 0001212  87.1394 251.0154 15.34361684    10

Отслеживайте STARLINK-34297 в реальном времени с AllMySat

Download on the App Store